Regional Weather Roundup
Issued by NWS

Home | Current Version | Previous Version | Graphics & Text | Print | Product List | Glossary On
Versions: 1 2 3 4 5 6 7 8 9 10 11 12 13 14 15 16 17 18 19 20 21 22 23 24 25 26 27
000
ASUS45 KBOI 012210
RWRID

IDAHO REGIONAL WEATHER ROUNDUP
NATIONAL WEATHER SERVICE BOISE ID
400 PM MDT SUN MAY 01 2016

NOTE: "FAIR" INDICATES FEW OR NO CLOUDS BELOW 12000 FEET
WITH NO SIGNIFICANT WEATHER AND/OR OBSTRUCTIONS TO VISIBILITY

IDZ012-014-012300-
SOUTHWEST IDAHO


CITY           SKY/WX    TMP DP  RH WIND       PRES   REMARKS
BOISE          SUNNY     70  37  29 NE7       30.06F
CALDWELL       SUNNY     69  40  34 W6        30.06F
MOUNTAIN HOME  SUNNY     71  29  20 E21G30    30.03F
$$

IDZ016-017-012300-
SOUTHCENTRAL IDAHO


CITY           SKY/WX    TMP DP  RH WIND       PRES   REMARKS
BURLEY         MOSUNNY   62  31  31 E13       30.07F
JEROME         MOSUNNY   65  28  24 E15G31    30.08F
TWIN FALLS     MOSUNNY   61  31  32 E15G23    30.08F
$$

IDZ019>023-012300-
SOUTHEAST IDAHO


CITY           SKY/WX    TMP DP  RH WIND       PRES   REMARKS
IDAHO FALLS    SUNNY     63  25  23 NE10      30.12F
POCATELLO      MOSUNNY   64  26  23 E10G17    30.10F
REXBURG        SUNNY     63  17  17 VRB7      30.11F
$$

IDZ006-010-011-018-031-032-012300-
CENTRAL IDAHO MOUNTAINS


CITY           SKY/WX    TMP DP  RH WIND       PRES   REMARKS
MCCALL         FAIR      62  30  29 NW7       30.09F
HAILEY         MOSUNNY   61  34  36 SE9G17    30.11F
STANLEY          N/A     61  23  23 VRB5      30.13F
SALMON         SUNNY     63  32  31 N9        30.10F
CHALLIS        SUNNY     64  26  23 VRB6      30.11F
$$

IDZ002-004-006-007-026-012300-
NORTHERN IDAHO


CITY           SKY/WX    TMP DP  RH WIND       PRES   REMARKS
LEWISTON       SUNNY     71  44  37 VRB3      30.06F
LOWELL           N/A     80  37  21 CALM      30.01F
COEUR D`ALENE  SUNNY     72  39  30 N13G18    30.07F
MULLAN PASS    SUNNY     55  31  39 CALM      30.21S
$$




USA.gov is the U.S. government's official web portal to all federal, state and local government web resources and services.